Dewpoint
-4 -1 -1 3 1 3 6 2 3 4 5 -0 0 1 -2 0 1 1 1 1 2 3 3 4 4 4 2 1 1 3 2 3 3 1 1 1 2 2 1 4 3 5 5 4
-5 -3 -1 -0 4 6 5 2 3 3 2 3 2 1 1 1 1 1 1 2 2 2 3 4 3 3 3 2 2 3 1 3 2 -3 -0 -0 3 3 2 2 3 5 7 3
-7 -4 -1 -1 4 3 1 1 5 1 -1 -0 1 1 1 2 1 1 2 2 1 2 3 4 4 4 2 2 2 1 1 2 1 1 -2 0 3 4 3 4 6 4 4 2
-8 -5 -3 -1 -0 3 0 1 3 2 3 3 1 1 1 2 1 1 1 2 2 2 3 3 5 4 2 2 3 3 3 5 3 3 2 3 3 3 3 4 4 5 3 3
-7 -6 -6 -1 -2 2 -0 2 2 2 3 1 1 1 2 3 2 1 2 3 3 2 3 1 3 3 3 2 2 3 2 4 4 4 3 3 4 3 3 4 4 4 4 4
-7 -6 -6 -3 -1 -0 1 2 2 1 2 -0 1 1 2 2 1 1 1 2 2 1 2 1 2 2 2 2 2 3 3 4 4 3 3 3 3 -0 2 2 2 2 2 -0
-6 -6 -6 -5 -1 -0 -0 1 -0 0 2 0 2 2 1 2 1 2 2 0 1 1 3 3 2 1 -1 0 3 2 3 3 3 6 4 5 0 -1 -1 1 0 -0 -1 -0
-6 -6 -5 -3 -1 1 0 1 -1 -3 2 2 2 1 2 2 2 2 1 2 2 3 2 2 1 1 -2 0 3 2 2 3 4 5 5 4 2 0 -0 1 0 -0 2 2
-4 -5 -5 -2 1 2 2 1 -0 -2 0 3 1 1 1 2 1 2 4 4 3 3 -0 2 2 2 1 1 1 1 1 0 4 5 6 6 2 -2 -1 0 3 2 2 3
-3 -3 -3 -1 1 2 2 1 1 -0 -2 1 2 1 2 1 1 2 3 4 3 3 2 4 4 5 1 3 1 -0 3 3 4 4 5 4 1 -0 -1 5 5 3 2 2
-0 -1 -1 -0 2 2 2 1 0 0 -1 2 2 1 0 1 1 3 3 3 3 3 3 4 4 3 2 3 1 1 1 3 3 3 4 4 -1 -0 3 3 3 2 3 3
2 1 1 2 2 2 2 3 2 1 1 2 3 3 2 2 1 1 3 1 2 3 2 1 1 3 0 2 5 -0 4 2 3 3 3 -1 -1 0 1 3 4 3 3 2
4 3 3 3 4 3 3 2 3 2 2 3 3 3 4 4 3 3 2 2 2 2 2 1 1 3 1 4 3 3 2 1 4 3 3 1 1 2 3 3 3 2 2 -0
5 5 4 4 5 5 5 4 4 3 3 3 3 3 3 4 4 4 4 4 3 3 3 3 1 3 1 3 4 4 3 3 3 3 2 2 2 3 4 3 2 0 -6 -5
5 5 5 5 5 5 5 5 5 5 4 3 3 3 3 2 2 2 3 3 4 4 5 3 3 3 3 3 2 3 3 4 4 4 2 3 4 2 3 2 -4 -6 -5 -10
5 5 5 5 5 6 5 5 6 6 5 4 3 3 3 2 2 2 3 3 4 5 5 5 4 4 3 3 4 3 2 2 2 3 3 2 2 3 -3 -6 -5 -8 -10 -10
5 5 5 5 6 6 5 4 3 4 5 4 3 2 3 3 3 3 4 4 5 5 5 5 4 3 3 2 4 2 2 1 2 0 1 3 2 -1 -3 -6 -8 -7 -7 -8
5 5 5 5 5 5 5 5 3 3 5 3 1 2 2 2 2 3 3 4 4 4 4 4 4 3 3 4 2 1 -1 -1 -0 0 1 1 -2 -5 -6 -6 -7 -9 -10 -10
5 5 5 5 5 5 5 5 4 3 3 3 3 3 4 2 2 2 2 3 2 2 2 2 3 2 3 0 -1 0 -0 -0 1 -2 -2 -4 -6 -6 -8 -10 -9 -9 -8 -7
5 5 5 4 4 5 5 5 5 5 4 3 2 2 2 3 2 2 2 2 1 2 1 1 1 2 -2 -2 0 -0 -1 -1 -2 -5 -7 -8 -10 -11 -11 -11 -8 -5 -5 -5
3 3 2 2 3 3 3 2 2 1 1 1 2 2 2 2 2 2 2 1 0 1 -1 1 1 0 -3 -5 -5 -5 -7 -8 -9 -12 -14 -14 -14 -13 -12 -13 -11 -9 -10 -10
1 1 0 1 1 0 0 1 -0 1 1 0 0 1 1 1 2 1 -1 0 -1 -1 -2 -0 0 -3 -3 -5 -8 -8 -8 -13 -14 -16 -16 -15 -13 -12 -11 -11 -10 -9 -8 -8
1 1 0 0 0 1 2 2 1 1 -1 -0 0 -0 1 0 1 -0 -1 -1 -1 -3 -2 -1 -3 -6 -11 -11 -10 -10 -10 -12 -15 -15 -14 -10 -10 -11 -10 -9 -9 -8 -8 -7
0 0 1 -0 0 -0 -2 -3 -3 -2 -0 -0 0 -1 -1 -1 -2 -3 -2 -4 -4 -1 -2 -3 -5 -10 -9 -9 -8 -9 -12 -15 -14 -11 -9 -8 -9 -9 -9 -9 -8 -8 -7 -6
-4 -4 -1 -1 -3 -2 -1 -1 -1 -0 -0 -0 -1 -2 -2 -4 -4 -4 -4 -3 -2 -3 -4 -5 -9 -9 -8 -7 -8 -12 -14 -13 -11 -9 -9 -8 -8 -8 -9 -9 -8 -7 -7 -7
-5 -5 -4 -3 -3 -2 -1 -1 -0 -0 -0 -0 -1 -4 -3 -3 -5 -4 -4 -4 -4 -5 -7 -8 -9 -8 -8 -10 -14 -14 -13 -11 -8 -8 -8 -7 -7 -8 -8 -9 -8 -7 -7 -7
-7 -5 -4 -3 -4 -3 -3 -2 -1 -1 -1 -3 -6 -5 -4 -7 -5 -4 -6 -6 -7 -8 -12 -13 -10 -10 -11 -15 -15 -14 -10 -8 -8 -8 -7 -7 -9 -10 -9 -9 -9 -8 -7 -8
Wind_Speed
3 6 9 9 7 8 6 3 3 4 10 4 3 3 5 4 2 5 4 5 4 3 3 4 3 3 1 4 1 2 1 2 1 2 1 1 1 3 3 2 2 1 0 7
1 3 6 10 7 8 5 4 5 4 7 3 1 1 3 5 2 5 3 3 3 3 3 4 3 3 2 6 3 1 2 2 2 2 2 2 1 2 4 4 2 7 3 6
1 1 4 7 8 6 6 4 2 3 4 6 7 5 2 4 6 5 7 4 4 4 4 5 3 2 2 3 3 4 2 2 4 4 3 2 4 4 5 4 4 4 12 18
3 1 1 4 6 5 4 2 2 2 1 3 6 4 3 4 3 4 4 4 3 5 3 2 2 1 2 2 2 2 3 3 3 4 8 5 10 12 11 12 12 7 14 15
4 3 1 1 3 3 3 3 5 6 4 4 5 4 1 4 3 3 2 6 2 3 4 4 4 3 2 3 1 2 2 2 1 3 5 4 8 14 12 13 13 13 18 20
6 4 3 2 1 2 2 5 8 4 3 2 4 2 4 5 8 6 4 14 5 4 5 6 3 5 3 2 3 2 0 3 1 3 5 8 7 4 4 3 5 4 6 8
8 6 4 3 1 2 3 6 6 4 1 2 3 4 3 5 3 7 7 6 5 4 6 5 1 2 5 2 4 1 4 3 1 2 4 1 3 2 5 7 13 8 8 6
9 7 5 4 3 2 4 7 4 4 2 2 3 9 8 11 8 5 6 3 5 10 4 3 5 4 5 3 8 4 4 4 2 2 3 6 11 6 2 4 7 3 4 9
11 9 8 5 4 3 4 5 5 4 11 5 8 6 8 4 3 3 4 6 10 5 5 3 2 2 3 3 2 5 4 3 1 2 3 5 4 1 4 4 6 4 11 21
12 11 9 8 6 6 5 5 6 4 5 8 10 4 6 6 6 3 3 5 4 4 2 2 3 3 1 2 2 2 1 1 4 6 5 8 6 4 1 2 3 10 20 24
13 12 11 9 8 7 7 6 6 5 5 11 8 7 7 7 6 4 8 5 1 4 3 3 3 3 3 2 2 3 3 3 4 2 4 7 2 3 1 7 23 17 20 8
14 13 12 11 10 9 8 7 7 7 4 5 7 7 6 6 5 8 15 3 5 8 4 2 3 3 2 3 3 0 4 5 2 7 6 6 8 17 15 13 7 10 8 5
15 14 14 11 10 9 9 8 8 8 6 4 7 6 8 7 7 7 5 5 6 7 6 9 3 4 4 4 6 2 3 6 4 1 8 17 20 21 12 10 11 10 7 7
17 15 14 13 11 9 8 8 8 8 5 3 4 7 6 8 9 9 9 8 8 7 8 4 3 2 10 4 3 5 7 5 4 6 20 18 13 12 20 8 5 6 7 10
20 18 16 14 12 11 9 8 9 10 7 4 4 6 8 9 8 9 11 12 11 9 6 4 3 5 4 2 1 5 9 7 4 6 14 9 6 11 6 2 5 6 10 15
22 19 17 15 14 11 8 5 11 11 10 2 1 4 8 10 13 13 14 15 15 12 7 5 6 8 5 3 3 8 18 18 19 15 9 15 9 2 6 3 5 8 10 16
25 22 18 17 14 13 9 3 2 13 14 4 1 3 2 8 11 10 11 13 9 9 6 8 6 7 7 2 3 5 7 12 7 8 6 2 3 5 2 4 8 13 19 24
27 23 19 17 14 13 14 13 5 9 9 6 3 3 1 4 4 4 5 5 6 5 4 3 4 4 6 4 2 8 9 8 3 2 2 8 12 5 8 13 19 23 25 24
27 25 21 20 22 16 21 18 17 16 9 6 6 4 3 4 4 3 3 3 2 1 2 2 3 2 4 1 6 7 5 2 13 15 13 7 7 12 17 20 22 23 26 26
28 28 17 9 12 17 17 14 12 12 7 8 4 6 2 5 5 1 3 1 2 2 1 1 2 2 5 4 6 13 18 18 10 6 5 10 14 17 20 22 24 24 27 31
22 7 5 15 23 12 5 5 3 3 3 4 4 5 4 6 2 3 3 2 2 2 0 2 1 2 4 13 13 10 9 8 7 7 9 12 16 20 24 27 28 29 31 33
8 11 18 11 3 4 4 2 4 2 3 5 5 4 4 4 4 3 2 2 1 3 0 2 2 1 8 10 7 6 5 6 10 14 16 17 18 20 23 25 27 28 30 31
12 4 5 3 2 3 4 4 1 3 7 7 6 4 4 4 4 4 2 2 2 1 1 3 2 8 9 8 6 3 5 11 16 17 17 17 19 21 22 26 27 30 32 32
3 3 4 2 1 1 3 3 3 4 6 13 11 6 2 2 3 2 3 1 1 2 2 5 3 10 8 5 3 7 14 18 18 18 18 19 23 25 26 27 30 32 32 31
4 3 3 1 2 4 6 11 9 7 12 16 9 6 3 2 3 2 2 2 3 4 4 2 11 6 4 4 7 16 20 20 20 18 20 24 25 26 30 30 31 28 28 28
3 4 4 6 4 3 5 9 10 9 14 10 5 3 2 1 3 3 5 5 5 3 3 10 4 3 3 9 16 19 20 19 19 20 23 25 24 26 30 32 30 28 27 29
2 3 5 5 3 6 6 6 8 10 11 2 4 3 3 4 2 2 4 5 3 9 8 3 4 5 13 17 20 20 19 18 20 24 24 24 24 28 30 31 31 29 30 27
Wind_Direction
61 61 60 69 145 157 160 163 81 128 155 65 51 119 142 127 53 71 73 87 83 93 70 70 92 119 75 353 318 50 9 133 280 139 116 325 115 129 98 123 222 203 8 269
69 51 59 61 105 161 159 114 109 93 169 122 6 147 71 78 79 33 71 83 61 55 91 100 77 91 70 31 54 110 182 23 359 29 34 17 95 167 113 104 93 227 223 267
170 38 55 63 72 127 153 134 64 69 92 99 124 124 83 104 65 69 72 96 90 87 56 25 116 85 56 28 87 79 95 127 174 215 226 191 248 216 190 180 238 249 242 273
198 239 56 67 63 84 121 93 92 113 178 20 106 101 111 112 112 83 63 51 72 128 105 64 96 180 336 54 102 67 94 224 207 259 269 277 273 254 229 224 233 242 273 276
202 216 205 88 62 70 87 124 144 98 80 107 93 15 99 129 127 79 46 116 126 97 126 155 189 171 210 226 58 87 29 242 61 289 335 320 284 274 252 238 247 250 261 268
204 210 201 203 99 90 102 112 127 127 4 64 85 205 159 166 124 46 112 138 105 90 172 150 153 193 153 176 164 148 132 139 115 269 329 310 291 242 186 203 207 237 263 302
204 212 204 195 157 123 108 139 129 110 266 89 143 142 108 133 108 133 127 124 107 149 139 139 125 53 51 60 30 224 134 99 138 292 337 268 256 234 238 250 273 265 280 334
202 206 213 192 179 143 140 147 116 108 110 136 92 124 115 110 101 86 124 112 133 148 140 60 23 349 21 33 39 53 137 135 184 244 221 305 296 289 142 174 284 43 38 345
201 198 204 201 178 145 142 152 133 108 124 234 138 125 149 137 109 54 94 120 147 149 77 65 116 250 228 312 32 37 61 71 143 161 253 268 250 356 14 149 286 139 352 337
200 199 200 199 190 184 171 151 148 121 102 150 157 139 172 139 118 112 138 156 142 142 83 102 169 236 227 258 205 281 318 330 243 249 256 267 262 332 160 13 322 291 311 310
203 199 198 200 201 196 189 179 171 158 117 160 171 160 149 150 167 140 154 111 173 78 90 146 192 196 211 186 228 196 236 205 217 169 238 277 249 258 244 316 305 295 317 330
205 203 201 199 200 204 198 189 187 175 155 156 172 179 179 176 157 163 169 168 163 163 98 165 128 203 186 186 233 299 272 201 197 186 230 288 269 292 304 315 335 4 355 317
204 205 203 200 200 200 201 195 188 175 161 148 173 186 200 200 195 192 169 199 182 180 176 157 148 214 142 184 225 214 262 204 224 206 240 263 287 300 309 332 333 322 325 345
207 206 205 202 200 200 198 192 189 185 142 156 186 195 195 213 218 217 215 217 192 199 192 155 152 184 193 210 242 201 251 183 223 248 287 282 291 312 307 289 335 358 11 343
210 210 209 206 207 209 205 201 198 192 193 156 154 172 196 206 219 235 228 225 227 210 171 155 211 203 177 213 291 240 214 224 222 261 295 309 346 340 269 68 55 21 328 331
211 211 212 211 209 207 208 219 233 218 216 181 64 233 221 229 233 224 229 238 236 219 189 185 213 213 212 193 221 239 252 263 268 280 326 322 306 186 105 94 333 331 335 329
212 211 212 215 212 209 191 204 202 203 206 179 269 316 193 224 230 228 225 222 215 213 207 204 218 224 223 206 249 226 276 304 304 303 291 173 143 152 123 345 337 326 321 319
210 212 211 218 220 218 222 222 220 184 173 178 139 254 220 191 182 176 172 178 190 207 218 208 202 185 212 243 211 330 315 310 299 293 189 134 131 95 353 332 322 317 315 316
205 213 211 205 209 204 212 218 215 204 204 192 166 155 212 190 178 140 126 154 112 238 223 217 190 193 217 291 323 2 12 132 121 110 107 84 356 334 327 322 320 314 315 315
197 192 184 184 174 186 181 182 195 203 210 205 149 154 150 168 168 107 136 106 140 210 231 258 215 250 121 57 100 93 90 95 105 98 26 345 330 324 320 318 318 315 313 311
162 147 114 142 142 135 140 126 137 168 161 179 164 194 132 170 134 159 183 158 132 230 222 224 235 239 138 124 116 105 95 83 62 22 346 330 323 321 320 321 319 317 314 312
104 132 124 120 134 102 135 151 136 204 165 152 145 118 101 130 152 130 157 144 118 234 288 232 239 186 149 144 130 116 98 29 356 342 333 325 321 319 316 316 317 318 316 316
117 92 86 116 47 103 156 161 98 136 161 161 151 112 143 136 157 96 112 147 204 119 203 240 236 152 148 150 148 147 342 338 333 327 324 319 321 320 319 319 322 320 318 318
96 118 101 73 163 195 168 155 142 135 148 156 141 105 112 116 90 107 124 95 115 198 233 229 192 169 169 180 192 328 328 332 325 321 321 321 323 320 321 321 321 321 320 318
97 95 105 138 114 95 120 119 118 130 153 154 124 100 117 55 99 46 106 129 235 220 232 211 168 178 202 236 281 317 322 323 322 322 321 321 321 319 318 323 326 327 323 320
86 91 108 145 126 130 134 138 136 151 152 127 104 106 119 144 125 140 202 169 223 240 208 156 176 221 242 295 309 315 316 313 311 314 316 315 316 319 319 321 325 326 327 325
68 80 119 138 112 154 150 146 158 162 152 152 136 140 192 112 107 219 192 207 214 169 146 185 215 288 313 310 309 311 310 307 308 309 311 312 318 321 320 318 322 323 327 331
Height
1509 1509 1509 1508 1509 1511 1514 1514 1516 1518 1519 1523 1530 1534 1532 1534 1536 1536 1538 1541 1545 1550 1553 1558 1559 1563 1563 1562 1562 1564 1566 1570 1569 1564 1565 1564 1564 1566 1569 1573 1577 1579 1583 1562
1509 1509 1509 1509 1509 1511 1513 1514 1516 1518 1519 1532 1537 1533 1534 1535 1536 1539 1540 1544 1546 1549 1555 1561 1560 1562 1564 1563 1563 1564 1565 1571 1573 1567 1568 1565 1564 1566 1571 1575 1578 1574 1578 1554
1508 1509 1509 1509 1510 1511 1513 1514 1520 1519 1519 1522 1526 1532 1536 1538 1538 1541 1542 1546 1547 1551 1557 1558 1562 1564 1563 1563 1562 1563 1563 1571 1570 1570 1565 1567 1569 1567 1568 1567 1572 1565 1560 1550
1508 1509 1510 1510 1511 1511 1513 1514 1518 1520 1527 1526 1526 1529 1533 1538 1541 1541 1543 1548 1549 1551 1561 1562 1564 1563 1563 1563 1563 1563 1564 1569 1570 1567 1565 1565 1561 1561 1563 1564 1559 1564 1549 1549
1507 1508 1510 1510 1511 1512 1513 1514 1516 1520 1524 1526 1527 1531 1535 1538 1541 1542 1545 1547 1551 1551 1557 1559 1563 1562 1563 1563 1563 1564 1567 1570 1572 1572 1570 1568 1564 1554 1556 1557 1555 1556 1551 1547
1507 1508 1509 1511 1511 1512 1513 1514 1515 1517 1528 1528 1530 1534 1535 1537 1538 1544 1544 1546 1551 1556 1555 1556 1557 1558 1559 1560 1563 1566 1568 1571 1576 1569 1575 1570 1558 1547 1548 1547 1546 1544 1545 1536
1506 1507 1509 1510 1511 1513 1513 1513 1515 1517 1532 1529 1531 1532 1533 1537 1539 1542 1546 1548 1550 1554 1555 1556 1557 1558 1560 1562 1565 1565 1573 1575 1579 1572 1572 1567 1538 1541 1541 1543 1538 1538 1539 1539
1505 1507 1508 1510 1511 1512 1513 1514 1516 1517 1530 1531 1531 1532 1534 1538 1540 1544 1547 1549 1551 1553 1555 1560 1565 1565 1564 1567 1568 1567 1567 1574 1576 1574 1568 1560 1541 1535 1538 1539 1536 1537 1538 1538
1503 1505 1507 1509 1511 1512 1514 1514 1516 1518 1521 1529 1529 1532 1535 1540 1543 1546 1548 1550 1551 1553 1557 1566 1573 1569 1571 1563 1566 1571 1571 1572 1572 1577 1569 1559 1539 1538 1538 1539 1537 1538 1538 1535
1502 1504 1506 1508 1510 1512 1514 1515 1517 1519 1521 1526 1529 1531 1535 1537 1540 1546 1548 1550 1553 1553 1562 1572 1572 1566 1571 1566 1573 1573 1574 1575 1572 1568 1567 1552 1540 1539 1537 1544 1543 1539 1536 1533
1501 1503 1505 1507 1509 1511 1513 1515 1517 1520 1522 1526 1528 1530 1532 1535 1538 1543 1547 1552 1552 1557 1564 1568 1571 1572 1567 1568 1564 1564 1562 1564 1569 1572 1567 1557 1537 1539 1542 1539 1535 1534 1531 1529
1499 1501 1504 1506 1508 1511 1512 1515 1517 1519 1523 1526 1528 1529 1531 1534 1536 1538 1542 1544 1544 1547 1557 1565 1568 1569 1573 1565 1560 1559 1559 1553 1552 1556 1546 1536 1537 1536 1535 1534 1532 1530 1531 1529
1497 1500 1502 1505 1507 1510 1512 1514 1516 1519 1522 1526 1527 1529 1531 1533 1534 1536 1539 1541 1542 1544 1545 1550 1557 1559 1559 1561 1560 1555 1549 1547 1548 1549 1536 1533 1533 1533 1531 1531 1529 1529 1528 1527
1495 1498 1501 1504 1507 1509 1511 1513 1515 1518 1521 1523 1526 1526 1529 1530 1532 1534 1535 1538 1539 1542 1544 1545 1550 1554 1549 1551 1546 1546 1543 1545 1540 1537 1531 1529 1528 1528 1527 1526 1526 1526 1525 1524
1492 1496 1499 1502 1505 1508 1510 1512 1514 1516 1521 1522 1523 1525 1526 1527 1529 1531 1532 1534 1536 1538 1541 1543 1546 1543 1545 1544 1544 1542 1537 1535 1536 1529 1527 1527 1525 1525 1526 1525 1525 1523 1523 1521
1490 1494 1498 1500 1503 1506 1509 1512 1513 1515 1517 1520 1522 1522 1521 1523 1525 1527 1529 1531 1532 1534 1534 1535 1536 1535 1538 1538 1535 1530 1528 1527 1526 1526 1526 1525 1523 1524 1525 1525 1523 1522 1521 1519
1486 1491 1495 1499 1501 1504 1508 1510 1510 1511 1514 1518 1519 1517 1519 1519 1521 1523 1524 1526 1527 1529 1530 1529 1530 1531 1534 1532 1528 1524 1523 1523 1522 1522 1521 1522 1523 1524 1523 1523 1522 1520 1518 1515
1483 1488 1493 1496 1499 1502 1504 1507 1509 1510 1513 1515 1517 1517 1519 1519 1519 1520 1521 1522 1523 1524 1525 1526 1526 1527 1526 1523 1519 1519 1519 1519 1518 1517 1517 1519 1522 1523 1523 1522 1519 1514 1511 1508
1478 1484 1489 1492 1494 1494 1498 1504 1507 1509 1513 1509 1511 1514 1517 1516 1517 1518 1520 1520 1522 1524 1522 1524 1525 1522 1520 1519 1519 1517 1515 1516 1518 1518 1520 1522 1523 1521 1519 1517 1514 1510 1506 1502
1472 1478 1484 1482 1485 1491 1497 1499 1504 1504 1503 1505 1503 1508 1512 1515 1516 1518 1521 1519 1521 1522 1523 1522 1521 1518 1518 1518 1518 1519 1518 1517 1521 1521 1521 1520 1518 1517 1514 1511 1508 1504 1501 1497
1464 1469 1474 1481 1484 1487 1491 1494 1499 1501 1502 1503 1503 1504 1506 1512 1515 1517 1519 1519 1521 1521 1522 1521 1519 1516 1517 1517 1519 1519 1518 1519 1520 1520 1519 1517 1514 1511 1508 1504 1501 1498 1495 1491
1465 1466 1473 1479 1483 1485 1490 1493 1497 1498 1498 1501 1503 1505 1507 1511 1513 1515 1518 1519 1522 1524 1524 1522 1515 1514 1515 1516 1517 1518 1518 1518 1517 1516 1514 1512 1509 1506 1503 1500 1496 1492 1488 1483
1468 1471 1474 1479 1484 1485 1486 1489 1492 1495 1498 1500 1502 1505 1508 1511 1512 1514 1518 1520 1522 1524 1523 1517 1514 1513 1514 1516 1517 1517 1517 1515 1513 1511 1509 1506 1503 1501 1498 1493 1490 1486 1480 1476
1470 1474 1478 1482 1485 1485 1487 1489 1490 1494 1496 1497 1501 1505 1508 1511 1513 1515 1517 1523 1523 1520 1522 1513 1511 1511 1512 1514 1514 1514 1513 1511 1508 1505 1502 1500 1497 1493 1489 1487 1483 1478 1472 1467
1471 1474 1481 1484 1485 1486 1487 1488 1491 1494 1496 1498 1501 1505 1509 1512 1515 1517 1520 1521 1519 1516 1509 1506 1506 1509 1510 1511 1511 1511 1509 1506 1503 1501 1498 1495 1492 1489 1484 1480 1475 1470 1465 1461
1473 1477 1483 1485 1487 1488 1488 1490 1492 1495 1496 1497 1500 1505 1509 1511 1512 1515 1517 1518 1514 1505 1503 1504 1506 1507 1508 1507 1506 1505 1503 1500 1498 1496 1493 1490 1486 1482 1478 1473 1469 1464 1461 1456
1474 1477 1477 1479 1482 1484 1487 1489 1491 1494 1497 1500 1501 1505 1504 1512 1513 1513 1512 1508 1500 1498 1500 1502 1504 1504 1503 1502 1500 1498 1496 1494 1493 1492 1488 1484 1480 1477 1472 1467 1463 1459 1455 1451